Chadron, NE

12:05 AM MST on November 22, 2017 (GMT -0700)
Chadron Municipal

Weather History for KCDR - February, 2014

Change the Weather History Date:

Thursday, February 27, 2014

  Actual Average Record
Temperature  
Mean Temperature 20 °F 31 °F  
Max Temperature 38 °F 46 °F 73 °F (2016)
Min Temperature 1 °F 16 °F -21 °F (1962)
Degree Days  
Heating Degree Days 45 34  
Month to date heating degree days 1235 1019  
Since 1 July heating degree days 5427 5218  
Cooling Degree Days 0 0  
Month to date cooling degree days 0 0  
Year to date cooling degree days 0 0  
Moisture  
Dew Point 14 °F    
Average Humidity 70    
Maximum Humidity 88    
Minimum Humidity 52    
Precipitation  
Precipitation 0.00 in 0.03 in 0.34 in (1953)
Month to date precipitation 0.35 0.58  
Year to date precipitation 0.55 0.94  
Sea Level Pressure  
Sea Level Pressure 29.83 in    
Wind  
Wind Speed 5 mph (South)    
Max Wind Speed 13 mph    
Max Gust Speed 16 mph    
Visibility 10 miles    
Events      
T = Trace of Precipitation, MM = Missing Value Source: NWS Daily Summary

Daily Weather History Graph

Daily Weather History Graph

Search for Another Location

Airport or City:

Trip Planner

Search our weather history database for the weather conditions in past years. The results will help you decide how hot, cold, wet, or windy it might be!

Date:

Astronomy

Feb. 27, 2014 Rise Set
Actual Time 6:31 AM MST 5:39 PM MST
Civil Twilight 6:02 AM MST 6:07 PM MST
Nautical Twilight 5:30 AM MST 6:40 PM MST
Astronomical Twilight 4:57 AM MST 7:13 PM MST
Moon 5:07 AM MST (2/27) 4:06 PM MST (2/27)
Length of Visible Light 12h 05m
Length of Day
11h 08m
Waning Crescent, 4% of the Moon is Illuminated
Feb 27
Waning Crescent
Mar 1
New
Mar 8
First Quarter
Mar 16
Full
Mar 23
Last Quarter

Hourly Weather History & Observations

Time (MST) Temp. Windchill Dew Point Humidity Pressure Visibility Wind Dir Wind Speed Gust Speed Precip Events Conditions
12:53 AM 8.1 °F -6.2 °F 1.9 °F 76% 30.08 in 10.0 mi WSW 10.4 mph - N/A   Clear
1:53 AM 9.0 °F - 1.9 °F 73% 30.07 in 10.0 mi Calm Calm - N/A   Clear
2:53 AM 6.1 °F - -0.9 °F 73% 30.04 in 10.0 mi Calm Calm - N/A   Clear
3:53 AM 3.9 °F -3.4 °F -0.9 °F 80% 30.02 in 10.0 mi WSW 3.5 mph - N/A   Clear
4:53 AM 5.0 °F - -0.0 °F 80% 30.02 in 10.0 mi Calm Calm - N/A   Clear
5:53 AM 1.0 °F -6.7 °F -4.0 °F 79% 30.02 in 10.0 mi WSW 3.5 mph - N/A   Clear
6:53 AM 5.0 °F -4.1 °F -0.0 °F 80% 29.98 in 10.0 mi SSW 4.6 mph - N/A   Clear
7:53 AM 8.1 °F - 1.9 °F 76% 29.96 in 10.0 mi Calm Calm - N/A   Clear
8:53 AM 15.1 °F - 5.0 °F 64% 29.93 in 10.0 mi Calm Calm - N/A   Clear
9:53 AM 19.0 °F 12.3 °F 8.1 °F 62% 29.91 in 10.0 mi NE 4.6 mph - N/A   Clear
10:53 AM 23.0 °F - 10.9 °F 60% 29.85 in 10.0 mi Calm Calm - N/A   Clear
11:53 AM 30.9 °F 21.2 °F 18.0 °F 59% 29.80 in 10.0 mi South 12.7 mph - N/A   Partly Cloudy
12:53 PM 33.1 °F 26.1 °F 21.0 °F 61% 29.75 in 10.0 mi South 8.1 mph - N/A   Clear
1:53 PM 37.0 °F 32.4 °F 21.9 °F 54% 29.72 in 10.0 mi South 5.8 mph - N/A   Clear
2:53 PM 37.9 °F 30.5 °F 25.0 °F 60% 29.70 in 10.0 mi South 11.5 mph - N/A   Clear
3:53 PM 37.9 °F 31.5 °F 27.0 °F 65% 29.70 in 10.0 mi South 9.2 mph - N/A   Clear
4:53 PM 35.1 °F 28.6 °F 27.0 °F 72% 29.69 in 10.0 mi South 8.1 mph - N/A   Clear
5:53 PM 33.1 °F 25.5 °F 26.1 °F 75% 29.70 in 10.0 mi South 9.2 mph - N/A   Clear
6:53 PM 32.0 °F 22.5 °F 25.0 °F 75% 29.69 in 10.0 mi South 12.7 mph - N/A   Clear
7:53 PM 28.9 °F 22.8 °F 24.1 °F 82% 29.68 in 9.0 mi South 5.8 mph - N/A   Clear
8:53 PM 28.0 °F 24.2 °F 23.0 °F 81% 29.67 in 9.0 mi WSW 3.5 mph - N/A   Clear
9:53 PM 28.0 °F - 23.0 °F 81% 29.65 in 9.0 mi Calm Calm - N/A   Clear
10:53 PM 25.0 °F 19.3 °F 21.9 °F 88% 29.64 in 7.0 mi SSE 4.6 mph - N/A   Clear
11:53 PM 23.0 °F - 21.0 °F 92% 29.62 in 7.0 mi Calm Calm - N/A   Clear